Other Public Products
Issued by NWS Charleston, SC

Home | Current Version | Previous Version | Text Only | Print | Product List | Glossary On
Versions: 1 2 3 4 5 6 7 8 9 10 11 12 13 14 15 16 17 18 19 20 21 22 23 24 25 26 27 28 29 30 31 32 33 34 35 36 37 38 39 40 41 42 43 44 45 46 47 48 49 50
000
FPUS82 KCHS 230727
OPUCHS

TEST...KCHS/KSAV Gateway Observations...TEST
National Weather Service Charleston SC
300 AM EDT THU MAR 23 2017

NOTE: "fair" indicates few or no clouds below 12,000 feet with no
significant weather and/or obstructions to visibility.

SCZ050-WAZ558-NCZ071-TXZ119-213-PAZ071-DCZ001-FLZ074-172-MI076-
NYZ176-178-MAZ016-IL014-TNZ027-NJZ106-GAZ044-MD014-230800-

...Gateway Observations for Charleston International...

CITY           SKY/WX    TMP DP  RH WIND       PRES   REMARKS
Chas Airport   PTCLDY    52  37  56 E13       30.36R
Seattle        PTCLDY    44  38  79 S13       30.08R
Charlotte      CLEAR     44  18  35 E8        30.43R
Dallas DFW     CLEAR     70  60  70 S13       30.04S
Dallas Love    CLEAR     70  59  68 S14       30.06S
Philladelphia  PTCLDY    25   3  38 N13       30.53S WCI  14
Wash National  CLEAR     34   9  35 NE10      30.53R WCI  26
Baltimore      CLEAR     29   5  36 E5        30.52R WCI  24
Miami          PTCLDY    67  59  75 W3        30.12F
Detroit        PTCLDY    25  14  63 E5        30.56R WCI  19
Newark         CLEAR     24   4  42 NW9       30.49S WCI  14
Laguardia      CLEAR     26   6  42 NW10      30.48R WCI  16
J F K          CLEAR     24   3  40 NW16      30.49R WCI  11
Boston Logan   CLEAR     18  -4  37 NW14      30.37R WCI   4
Ft. Lauderdale CLEAR     67  58  72 W5        30.11F
Chicago O`Hare CLOUDY    32  23  69 E5        30.45S WCI  27
Chicago Midway CLOUDY    33  19  56 SE9       30.46S WCI  25
Houston Bush   PTCLDY    64  62  93 S5        30.13F
Houston Hobby  PTCLDY    66  64  93 SE5       30.13F
Nashville      CLEAR     42  22  44 NE6       30.32F
Atlanta        PTCLDY    54  37  52 E12       30.30R

$$

GAZ044-118-TXZ119-213-NCZ071-DCZ001-MDZ014-506-PAZ021-071-NJZ106-
NYZ176-178-MAZ106-OHZ011-021-055-MIZ076-KYZ091-ILZ014-INZ047-
MNZ060-ONZ431-230800-

...Gateway Observations for Savannah International...

CITY           SKY/WX    TMP DP  RH WIND       PRES   REMARKS
Savannah Arpt  CLOUDY    59  50  72 E12       30.30R
Atlanta        PTCLDY    54  37  52 E12       30.30R
Charlotte      CLEAR     44  18  35 E8        30.43R
Dallas DFW     CLEAR     70  60  70 S13       30.04S
Houston Bush   PTCLDY    64  62  93 S5        30.13F
Wash National  CLEAR     34   9  35 NE10      30.53R WCI  26
Wash Dulles    PTCLDY    29   9  43 N6        30.50R WCI  23
Baltimore      CLEAR     29   5  36 E5        30.52R WCI  24
Philadelphia   PTCLDY    25   3  38 N13       30.53S WCI  14
Newark         CLEAR     24   4  42 NW9       30.49S WCI  14
Laguardia      CLEAR     26   6  42 NW10      30.48R WCI  16
J F K          CLEAR     24   3  40 NW16      30.49R WCI  11
Boston         CLEAR     18  -4  37 NW14      30.37R WCI   4
Pittsburg      CLEAR     22  10  60 CALM      30.50S
Akron          CLEAR     21  10  62 E3        30.51S
Cleveland      CLEAR     23  14  68 S5        30.56F WCI  17
Cincinnati     CLEAR     31  19  61 E14       30.44F WCI  21
Columbus       CLEAR     24  15  69 E8        30.50F WCI  15
Detroit        PTCLDY    25  14  63 E5        30.56R WCI  19
Chicago O`Hare CLOUDY    32  23  69 E5        30.45S WCI  27
Minneapolis    CLOUDY    36  18  48 SE9       30.25F WCI  29
Indianapolis   PTCLDY    30  19  63 E9        30.44S WCI  22
Toronto Canada CLEAR     19   9  63 NW6       30.53S WCI  11

$$




USA.gov is the U.S. government's official web portal to all federal, state and local government web resources and services.